When you browse on this site, cookies collect data to enhance your experience and personalize the content and advertising you see.
Visit our Privacy Policy to learn more. By continuing to use the site, you agree to this use of cookies and data.
  • In Hungary
  • List of Countries
  • For 7 days
  • Water Temperature
  • Weather Map
  • News
  • Weather Widgets
  • user-avatar
    Login

    Hourly Weather Brusno

    Today, 8 December, Sunday

    Time Temperature Precipitation Wind Pressure Humidity
    00:00 +3°C° 0.1 mm 5 mps 742 mmHg 89%
    01:00 +5°C° 0.1 mm 5 mps 742 mmHg 89%
    02:00 +5°C° 0.3 mm 5 mps 741 mmHg 89%
    03:00 +5°C° 0.3 mm 5 mps 741 mmHg 89%
    04:00 +4°C° 0.3 mm 6 mps 741 mmHg 88%
    05:00 +4°C° 0 mm 6 mps 741 mmHg 88%
    06:00 +4°C° 0 mm 6 mps 740 mmHg 87%
    07:00 +4°C° 0 mm 6 mps 740 mmHg 87%
    08:00 +4°C° 0 mm 7 mps 740 mmHg 85%
    09:00 +4°C° 0 mm 7 mps 739 mmHg 84%
    10:00 +4°C° 0 mm 8 mps 738 mmHg 82%
    11:00 +4°C° 0 mm 8 mps 738 mmHg 81%
    12:00 +4°C° 0 mm 8 mps 737 mmHg 80%
    13:00 +5°C° 0 mm 8 mps 736 mmHg 78%
    14:00 +5°C° 0.3 mm 8 mps 735 mmHg 81%
    15:00 +5°C° 0.3 mm 8 mps 735 mmHg 83%
    16:00 +5°C° 0.3 mm 8 mps 734 mmHg 86%
    17:00 +6°C° 0.4 mm 8 mps 734 mmHg 86%
    18:00 +6°C° 0.4 mm 8 mps 734 mmHg 86%
    19:00 +7°C° 0.4 mm 8 mps 734 mmHg 86%
    20:00 +6°C° 0.1 mm 7 mps 734 mmHg 84%
    21:00 +7°C° 0.1 mm 6 mps 734 mmHg 82%
    22:00 +6°C° 0.1 mm 5 mps 734 mmHg 80%
    23:00 +6°C° 0 mm 5 mps 734 mmHg 81%

    Tomorrow, 9 December, Monday

    Time Temperature Precipitation Wind Pressure Humidity
    00:00 +5°C° 0 mm 5 mps 734 mmHg 81%
    01:00 +5°C° 0 mm 5 mps 734 mmHg 82%
    02:00 +3°C° 0 mm 5 mps 733 mmHg 82%
    03:00 +3°C° 0 mm 6 mps 733 mmHg 82%
    04:00 +3°C° 0 mm 6 mps 733 mmHg 83%
    05:00 +3°C° 0 mm 5 mps 733 mmHg 83%
    06:00 +3°C° 0 mm 5 mps 734 mmHg 84%
    07:00 +2°C° 0 mm 5 mps 734 mmHg 85%
    08:00 +2°C° 0 mm 5 mps 734 mmHg 83%
    09:00 +3°C° 0 mm 5 mps 734 mmHg 81%
    10:00 +3°C° 0 mm 6 mps 734 mmHg 79%
    11:00 +3°C° 0 mm 6 mps 734 mmHg 76%
    12:00 +4°C° 0 mm 6 mps 734 mmHg 74%
    13:00 +4°C° 0 mm 6 mps 734 mmHg 71%
    14:00 +4°C° 0 mm 6 mps 734 mmHg 73%
    15:00 +4°C° 0 mm 6 mps 733 mmHg 76%
    16:00 +4°C° 0 mm 6 mps 733 mmHg 78%
    17:00 +4°C° 0.4 mm 6 mps 734 mmHg 81%
    18:00 +3°C° 0.4 mm 5 mps 734 mmHg 84%
    19:00 +3°C° 0.4 mm 5 mps 734 mmHg 86%
    20:00 +3°C° 0.1 mm 5 mps 734 mmHg 88%
    21:00 +4°C° 0.1 mm 4 mps 735 mmHg 89%
    22:00 +4°C° 0.1 mm 4 mps 735 mmHg 90%
    23:00 +4°C° 0 mm 4 mps 736 mmHg 89%

    Day after tomorrow, 10 December, Tuesday

    Time Temperature Precipitation Wind Pressure Humidity
    00:00 +4°C° 0 mm 4 mps 736 mmHg 88%
    01:00 +4°C° 0 mm 4 mps 737 mmHg 87%
    02:00 +3°C° 0 mm 4 mps 738 mmHg 88%
    03:00 +3°C° 0 mm 3 mps 739 mmHg 89%
    04:00 +3°C° 0 mm 3 mps 739 mmHg 89%
    05:00 +3°C° 0 mm 3 mps 741 mmHg 91%
    06:00 +3°C° 0 mm 3 mps 742 mmHg 92%
    07:00 +3°C° 0 mm 3 mps 743 mmHg 93%
    08:00 +3°C° 0 mm 3 mps 744 mmHg 93%
    09:00 +3°C° 0 mm 3 mps 745 mmHg 92%
    10:00 +4°C° 0 mm 3 mps 746 mmHg 91%
    11:00 +3°C° 0.1 mm 3 mps 747 mmHg 89%
    12:00 +3°C° 0.1 mm 4 mps 748 mmHg 87%
    13:00 +3°C° 0.1 mm 4 mps 749 mmHg 85%
    14:00 +2°C° 0 mm 3 mps 750 mmHg 84%
    15:00 +1°C° 0 mm 3 mps 751 mmHg 83%
    16:00 +1°C° 0 mm 2 mps 751 mmHg 82%
    17:00 +2°C° 0 mm 1 mps 752 mmHg 82%
    18:00 +2°C° 0 mm 1 mps 752 mmHg 81%
    19:00 0°C° 0 mm 0 mps 752 mmHg 81%
    20:00 +1°C° 0 mm 1 mps 752 mmHg 82%
    21:00 -1°C° 0 mm 2 mps 752 mmHg 83%
    22:00 -1°C° 0 mm 2 mps 752 mmHg 83%
    23:00 -1°C° 0 mm 3 mps 752 mmHg 84%

    11 December, Wednesday

    Time Temperature Precipitation Wind Pressure Humidity
    00:00 -1°C° 0 mm 3 mps 752 mmHg 85%
    01:00 -2°C° 0 mm 4 mps 751 mmHg 86%
    02:00 -2°C° 0 mm 4 mps 751 mmHg 86%
    03:00 -2°C° 0 mm 5 mps 750 mmHg 86%
    04:00 -1°C° 0 mm 5 mps 749 mmHg 85%
    05:00 -2°C° 0 mm 6 mps 749 mmHg 82%
    06:00 -2°C° 0 mm 6 mps 748 mmHg 80%
    07:00 -2°C° 0 mm 7 mps 748 mmHg 77%
    08:00 -2°C° 0 mm 7 mps 748 mmHg 74%
    09:00 -2°C° 0 mm 7 mps 748 mmHg 71%
    10:00 -1°C° 0 mm 7 mps 748 mmHg 69%
    11:00 -1°C° 0 mm 7 mps 747 mmHg 68%
    12:00 -1°C° 0 mm 6 mps 747 mmHg 67%
    13:00 0°C° 0 mm 5 mps 747 mmHg 66%
    14:00 0°C° 0 mm 5 mps 746 mmHg 67%
    15:00 0°C° 0 mm 4 mps 746 mmHg 69%
    16:00 0°C° 0 mm 4 mps 746 mmHg 71%
    17:00 0°C° 0.1 mm 4 mps 745 mmHg 72%
    18:00 0°C° 0.1 mm 4 mps 745 mmHg 72%
    19:00 -1°C° 0.1 mm 4 mps 745 mmHg 73%
    20:00 -1°C° 0.1 mm 4 mps 745 mmHg 73%
    21:00 -1°C° 0.1 mm 4 mps 744 mmHg 73%
    22:00 -1°C° 0.1 mm 4 mps 744 mmHg 73%
    23:00 -1°C° 0.1 mm 4 mps 744 mmHg 75%

    12 December, Thursday

    Time Temperature Precipitation Wind Pressure Humidity
    00:00 -1°C° 0.1 mm 4 mps 743 mmHg 76%
    01:00 -1°C° 0.1 mm 4 mps 743 mmHg 78%
    02:00 -1°C° 0 mm 4 mps 743 mmHg 79%
    03:00 0°C° 0 mm 3 mps 742 mmHg 81%
    04:00 0°C° 0 mm 3 mps 742 mmHg 83%
    05:00 0°C° 0.1 mm 3 mps 742 mmHg 86%
    06:00 0°C° 0.1 mm 3 mps 742 mmHg 90%
    07:00 0°C° 0.1 mm 3 mps 742 mmHg 93%
    08:00 0°C° 0.2 mm 3 mps 742 mmHg 94%
    09:00 +1°C° 0.2 mm 2 mps 742 mmHg 95%
    10:00 +2°C° 0.2 mm 2 mps 742 mmHg 96%
    11:00 +2°C° 0.2 mm 2 mps 742 mmHg 96%
    12:00 +2°C° 0.2 mm 2 mps 742 mmHg 97%
    13:00 +2°C° 0.2 mm 2 mps 742 mmHg 97%
    14:00 +2°C° 0.1 mm 2 mps 741 mmHg 96%
    15:00 +2°C° 0.1 mm 2 mps 741 mmHg 96%
    16:00 +2°C° 0.1 mm 2 mps 741 mmHg 96%
    17:00 +2°C° 0 mm 2 mps 741 mmHg 96%
    18:00 +2°C° 0 mm 2 mps 741 mmHg 96%
    19:00 +1°C° 0 mm 3 mps 741 mmHg 95%
    20:00 +1°C° 0 mm 3 mps 741 mmHg 95%
    21:00 0°C° 0 mm 3 mps 741 mmHg 94%
    22:00 0°C° 0 mm 3 mps 740 mmHg 94%
    23:00 0°C° 0 mm 3 mps 740 mmHg 94%

    13 December, Friday

    Time Temperature Precipitation Wind Pressure Humidity
    00:00 -1°C° 0 mm 4 mps 739 mmHg 95%
    01:00 -1°C° 0 mm 4 mps 739 mmHg 95%
    02:00 -1°C° 0 mm 4 mps 738 mmHg 93%
    03:00 -1°C° 0 mm 5 mps 737 mmHg 91%
    04:00 -1°C° 0 mm 5 mps 736 mmHg 89%
    05:00 -3°C° 0 mm 6 mps 735 mmHg 87%
    06:00 -3°C° 0 mm 7 mps 734 mmHg 84%
    07:00 -3°C° 0 mm 7 mps 733 mmHg 82%
    08:00 -4°C° 0 mm 8 mps 732 mmHg 77%
    09:00 -3°C° 0 mm 9 mps 730 mmHg 72%
    10:00 -3°C° 0 mm 10 mps 729 mmHg 68%
    11:00 -3°C° 0.2 mm 10 mps 728 mmHg 75%
    12:00 -3°C° 0.2 mm 10 mps 727 mmHg 83%
    13:00 -3°C° 0.2 mm 10 mps 726 mmHg 91%
    14:00 -3°C° 0.5 mm 9 mps 726 mmHg 92%
    15:00 -1°C° 0.5 mm 8 mps 726 mmHg 92%
    16:00 -1°C° 0.5 mm 7 mps 725 mmHg 93%
    17:00 -1°C° 0.1 mm 6 mps 726 mmHg 92%
    18:00 -1°C° 0.1 mm 6 mps 726 mmHg 91%
    19:00 0°C° 0.1 mm 5 mps 726 mmHg 89%
    20:00 0°C° 0 mm 5 mps 726 mmHg 89%
    21:00 0°C° 0 mm 5 mps 727 mmHg 88%
    22:00 -1°C° 0 mm 5 mps 727 mmHg 87%
    23:00 -1°C° 0 mm 5 mps 727 mmHg 88%
    Show more